ロニオス彗星

C/2006 S3 ( LONEOS )

English version
Home page
Updated on January 17, 2017

---------------------------------------------------------------------

・ プロフィール

発見日 2006年9月19日
発見光度 19.0等
発見者 Lowell Observatory Near-Earth Object Search

・ 写真集

・ 軌道要素

Epoch 2012 Apr. 23.0 TT = JDT 2456040.5
T 2012 Apr. 16.32294 TT                                 MPCW
q   5.1311798            (2000.0)            P               Q
z  -0.0006918      Peri.  140.12892     -0.21555302     -0.96492938
 +/-0.0000000      Node    38.37038     -0.94614372     +0.24433584
e   1.0035497      Incl.  166.03273     -0.24155529     -0.09597543
From 5338 observations 2006 Aug. 29-2015 Dec. 19, mean residual 0".7.

・ 星図

・ 光度変化

        m1 = 4.0 + 5 logΔ +  7.5 log r(t -  300)  [   ,300]  (              〜2013年 2月10日)
        m1 = 2.2 + 5 logΔ + 10.0 log r(t -  300)  [300,   ]  (2013年 2月10日〜              )

---------------------------------------------------------------------

軌道要素はM.P.E.C. 2015-Y73に掲載されたものです。
星図は StellaNavigator Ver.2.0 for Windows (アストロアーツ編著 / アスキー出版局刊) で作成したものです。
光度グラフはComet for Windowsで作成したものです。

---------------------------------------------------------------------

Copyright(C) Seiichi Yoshida (comet@aerith.net). All rights reserved.